Weather History for Albany, NY

Change the Weather History Date:

Tuesday, November 29, 2011

  Actual Average Record
Temperature  
Mean Temperature 55 °F 35 °F  
Max Temperature 64 °F 42 °F 66 °F (2005)
Min Temperature 46 °F 28 °F 3 °F (1875)
Degree Days  
Heating Degree Days 10 30  
Month to date heating degree days 595 729  
Since 1 July heating degree days 1041 1374  
Cooling Degree Days 0 0  
Month to date cooling degree days 0 0  
Year to date cooling degree days 794 598  
Growing Degree Days 4 (Base 50)    
Moisture  
Dew Point 53 °F    
Average Humidity 89    
Maximum Humidity 100    
Minimum Humidity 78    
Precipitation  
Precipitation 0.16 in 0.10 in 0.85 in (1905)
Month to date precipitation 1.85 3.18  
Year to date precipitation 49.91 36.31  
Snow  
Snow 0.00 in 0.20 in 3.30 in (1945)
Month to date snowfall T 2.6  
Since 1 July snowfall 5.4 2.6  
Since 1 September snowfall 5.4 2.6  
Snow Depth 0.00 in    
Sea Level Pressure  
Sea Level Pressure 29.86 in    
Wind  
Wind Speed 5 mph (SE)    
Max Wind Speed 17 mph    
Max Gust Speed 28 mph    
Visibility 8 miles    
Events Rain    
T = Trace of Precipitation, MM = Missing Value Source: NWS Daily Summary

Daily Weather History Graph

Daily Weather History Graph

Search for Another Location

Airport:

Trip Planner

Search our weather history database for the weather conditions in past years. The results will help you decide how hot, cold, wet, or windy it might be!

Date:

Astronomy

Nov. 29, 2011 Rise Set
Actual Time 7:03 AM EST 4:23 PM EST
Civil Twilight 6:31 AM EST 4:54 PM EST
Nautical Twilight 5:56 AM EST 5:29 PM EST
Astronomical Twilight 5:22 AM EST 6:03 PM EST
Moon 10:46 AM EST (11/29) 9:16 PM EST (11/29)
Length of Visible Light 10h 22m
Length of Day
9h 19m
Waxing Crescent, 24% of the Moon is Illuminated
Nov 29
Waxing Crescent
Dec 2
First Quarter
Dec 10
Full
Dec 17
Last Quarter
Dec 24
New

Hourly Weather History & Observations

Time (EST) Temp. Windchill Dew Point Humidity Pressure Visibility Wind Dir Wind Speed Gust Speed Precip Events Conditions
12:51 AM 48.0 °F - 46.9 °F 96% 30.06 in 10.0 mi Calm Calm - N/A   Mostly Cloudy
1:51 AM 48.0 °F - 46.9 °F 96% 30.05 in 10.0 mi Calm Calm - N/A   Mostly Cloudy
2:51 AM 46.9 °F - 46.0 °F 97% 30.05 in 10.0 mi East 3.5 mph - N/A   Mostly Cloudy
3:51 AM 46.9 °F - 46.0 °F 97% 30.05 in 10.0 mi Calm Calm - N/A   Overcast
4:51 AM 46.4 °F 45.2 °F 46.4 °F 100% 30.03 in 10.0 mi NNW 3.5 mph - N/A   Mostly Cloudy
5:51 AM 48.2 °F - 46.4 °F 93% 30.01 in 10.0 mi Calm Calm - N/A   Overcast
6:38 AM 48.2 °F - 46.4 °F 93% 30.01 in 10.0 mi Calm Calm - N/A   Overcast
6:51 AM 48.0 °F - 46.9 °F 96% 30.02 in 10.0 mi Calm Calm - N/A   Overcast
7:43 AM 48.2 °F - 46.4 °F 93% 30.01 in 10.0 mi NNW 4.6 mph - N/A   Overcast
7:51 AM 48.9 °F - 46.9 °F 93% 30.01 in 10.0 mi North 4.6 mph - N/A   Overcast
8:51 AM 51.1 °F - 48.0 °F 89% 30.00 in 10.0 mi North 3.5 mph - N/A   Overcast
9:51 AM 52.0 °F - 48.9 °F 89% 30.00 in 10.0 mi Calm Calm - N/A   Overcast
10:51 AM 55.0 °F - 50.0 °F 83% 29.97 in 10.0 mi Calm Calm - N/A   Overcast
11:41 AM 59.0 °F - 53.6 °F 82% 29.94 in 10.0 mi Calm Calm - N/A   Overcast
11:51 AM 61.0 °F - 55.9 °F 83% 29.94 in 10.0 mi SSE 4.6 mph - N/A   Overcast
12:51 PM 63.0 °F - 57.0 °F 81% 29.90 in 10.0 mi SSE 9.2 mph - N/A   Overcast
1:44 PM 60.8 °F - 57.2 °F 88% 29.89 in 2.5 mi SSE 12.7 mph 20.7 mph 0.00 in Rain Light Rain
1:51 PM 60.1 °F - 57.9 °F 93% 29.88 in 1.8 mi SE 8.1 mph 20.7 mph 0.02 in Rain Light Rain
2:12 PM 60.8 °F - 57.2 °F 88% 29.86 in 2.5 mi ESE 4.6 mph - N/A   Light Drizzle
2:24 PM 60.8 °F - 57.2 °F 88% 29.85 in 7.0 mi ESE 5.8 mph - 0.02 in   Overcast
2:51 PM 61.0 °F - 57.0 °F 87% 29.84 in 10.0 mi SE 4.6 mph - 0.02 in   Overcast
3:51 PM 63.0 °F - 55.0 °F 75% 29.83 in 10.0 mi SE 8.1 mph - 0.00 in   Overcast
4:51 PM 63.0 °F - 55.0 °F 75% 29.80 in 10.0 mi SE 9.2 mph - N/A   Overcast
5:51 PM 63.0 °F - 55.9 °F 78% 29.78 in 5.0 mi SSE 11.5 mph 20.7 mph 0.00 in Rain Light Rain
6:11 PM 60.8 °F - 57.2 °F 88% 29.76 in 3.0 mi SE 4.6 mph - 0.02 in Rain Light Rain
6:51 PM 61.0 °F - 57.0 °F 87% 29.73 in 4.0 mi SE 8.1 mph - 0.06 in Rain Light Rain
7:27 PM 62.6 °F - 57.2 °F 82% 29.71 in 10.0 mi SE 9.2 mph 20.7 mph 0.00 in   Overcast
7:51 PM 62.1 °F - 57.0 °F 84% 29.69 in 9.0 mi SE 6.9 mph - 0.01 in Rain Light Rain
8:04 PM 62.6 °F - 57.2 °F 82% 29.70 in 10.0 mi SSE 10.4 mph 17.3 mph 0.00 in Rain Light Rain
8:51 PM 63.0 °F - 57.0 °F 81% 29.67 in 10.0 mi SSE 10.4 mph 27.6 mph 0.00 in   Mostly Cloudy
9:51 PM 61.0 °F - 57.9 °F 90% 29.63 in 5.0 mi SE 8.1 mph - 0.02 in Rain Light Rain
10:23 PM 60.8 °F - 57.2 °F 88% 29.60 in 10.0 mi SE 5.8 mph - 0.01 in   Overcast
10:51 PM 61.0 °F - 57.9 °F 90% 29.58 in 10.0 mi SE 5.8 mph - 0.02 in   Mostly Cloudy
11:51 PM 61.0 °F - 59.0 °F 93% 29.54 in 10.0 mi SSE 9.2 mph - 0.01 in Rain Light Rain